Weather Roundup
Issued by NWS Chicago, IL

Home | Current Version | Previous Version | Text Only | Print | Product List | Glossary Off
Versions: 1 2 3 4 5 6 7 8 9 10 11 12 13 14 15 16 17 18 19 20 21 22 23 24 25 26 27 28 29 30 31 32 33 34 35 36 37 38 39 40 41 42 43 44 45 46 47 48 49 50

000
NZUS59 KLOT 160106
HRRLOT

CHICAGO AREA WEATHER ROUNDUP
NATIONAL WEATHER SERVICE CHICAGO/ROMEOVILLE IL
800 PM CDT MON SEP 15 2014

NOTE: "FAIR" INDICATES FEW OR NO CLOUDS BELOW 12,000 FEET WITH NO
SIGNIFICANT WEATHER AND/OR OBSTRUCTIONS TO VISIBILITY.

* THESE STATIONS ARE NOT UNDER NWS QUALITY CONTROL. THEY ALSO MAY NOT
  REPORT WEATHER SUCH AS PRECIPITATION OR FOG.

ILZ005-006-012>014-019>023-160200-
NORTHEAST ILLINOIS

CITY           SKY/WX    TMP DP  RH WIND       PRES   REMARKS
OHARE          CLOUDY    57  51  80 N13       30.13R
MIDWAY         CLOUDY    60  54  80 N7        30.12R
AURORA         MOCLDY    55  52  89 N8        30.14R
LANSING*       CLOUDY    55  54  96 W5        30.12S FOG
JOLIET*        MOCLDY    54  52  93 CALM      30.13S FOG
WAUKEGAN       CLEAR     51  48  89 NW5       30.13R
DUPAGE AIRPORT CLOUDY    56  52  86 N9        30.13R
WHEELING       PTCLDY    55  49  80 N6        30.15R
KANKAKEE*      CLOUDY    55  54  97 CALM      30.13R
MORRIS*        MOCLDY    55  55 100 CALM      30.12R FOG
LEWIS AIRPORT* CLOUDY    55  55 100 CALM      30.12S FOG
NORTHERLY IS     N/A     58  52  80 MISG        N/A
$$

WIZ051-052-058>065-066-070>072-160200-
SOUTHEAST WISCONSIN

CITY           SKY/WX    TMP DP  RH WIND       PRES   REMARKS
MILWAUKEE      PTCLDY    51  48  89 NW3       30.15R
KENOSHA*       PTCLDY    51  49  92 N5        30.15R
RACINE*        PTCLDY    51  48  89 NW5       30.16R
BURLINGTON     MOCLDY    48  46  95 CALM      30.15R
WAUKESHA       CLEAR     45  45 100 W3        30.16R
WEST BEND        N/A     46  45  93 CALM      30.15R FOG
$$

INZ001>003-010>013-019-020-160200-
NORTHWEST INDIANA

CITY           SKY/WX    TMP DP  RH WIND       PRES   REMARKS
GARY*          CLOUDY    57  55  94 SW7       30.12R
MICHIGAN CITY* NOT AVBL
RENSSELAER*    NOT AVBL
VALPARAISO     CLOUDY    54  52  93 W3        30.12R
$$

LMZ740>746-160200-
SOUTHERN LAKE MICHIGAN

STATION/POSITION TIME  SKY/WX   TEMP WIND        PRES    VSBY
                                AIR  DIR/SP/G
                 (UTC)          (F)  (DEG/KT/KT) (MB)    (MI)
HARRISON CRIB    0100            58  360/ 14/ 16   N/A
BURNHAM HARBOR   0100            58  360/  9/ 14   N/A
CALUMET HARBOR   0100            58  350/  6/ 11 1018.5S
BURNS HARBOR     NOT AVBL
MICHIGAN CITY    0100            56  220/  5/  8   N/A
$$

ABBREVIATIONS USED IN REMARKS
   TC - TEMPERATURE IN CELSIUS
  WCI - WIND CHILL INDEX
   HX - HEAT INDEX
  VSB - VISIBILITY
$$



USA.gov is the U.S. government's official web portal to all federal, state and local government web resources and services.